Location: Unspecified
(48.2082°N, 0.0000°E)
Time: 18:07:16
(UTC+00:00)

Vanguard 1 - Pass Details

Date: 02 July 2019
Orbit: 655 x 3829 km, 34.2° (Epoch: 19 August)

Event Time Altitude Azimuth Distance (km) Brightness Sun altitude
Rises 06:57:44 0° 275° (W) 6,517 13.7 25.7°
Reaches altitude 10° 07:06:48 10° 248° (WSW) 4,550 13.0 27.2°
Maximum altitude 07:09:51 11° 233° (SW) 4,092 12.9 27.8°
Drops below altitude 10° 07:12:32 10° 218° (SW) 3,873 12.8 28.2°
Sets 07:18:10 0° 185° (S) 4,160 13.2 29.1°
